| time (UTC) | temp F | wind direction | speed knots | gust knots | rain 1hr in | rain 24hr in | rain mn in | humidity % | barometer mb |
| 20260505100042 | 53 | 360 | 8.7 | 15.6 | 0.00 | 0.01 | 0.00 | 53 | 1007.9 |
| 20260505094540 | 53 | 360 | 12.2 | 20.9 | 0.00 | 0.01 | 0.00 | 52 | 1007.2 |
| 20260505093049 | 53 | 360 | 11.3 | 19.1 | 0.00 | 0.01 | 0.00 | 52 | 1007.4 |
| 20260505091538 | 54 | 360 | 13.9 | 21.7 | 0.00 | 0.01 | 0.00 | 51 | 1007.2 |
| 20260505090036 | 54 | 360 | 14.8 | 22.6 | 0.00 | 0.01 | 0.00 | 51 | 1007.0 |
| 20260505084532 | 54 | 360 | 12.2 | 18.2 | 0.00 | 0.01 | 0.00 | 52 | 1007.1 |
| 20260505083033 | 54 | 360 | 11.3 | 18.2 | 0.00 | 0.01 | 0.00 | 52 | 1007.3 |
| 20260505081529 | 55 | 360 | 13.0 | 19.1 | 0.00 | 0.01 | 0.00 | 51 | 1007.0 |
| 20260505080029 | 55 | 360 | 13.0 | 21.7 | 0.00 | 0.01 | 0.00 | 52 | 1007.3 |
| 20260505074521 | 55 | 360 | 7.8 | 14.8 | 0.00 | 0.01 | 0.00 | 55 | 1007.5 |
| 20260505073017 | 56 | 360 | 12.2 | 22.6 | 0.00 | 0.01 | 0.00 | 53 | 1006.9 |
| 20260505071514 | 57 | 360 | 11.3 | 21.7 | 0.00 | 0.01 | 0.00 | 53 | 1006.8 |
| 20260505070020 | 57 | 360 | 7.8 | 19.1 | 0.00 | 0.01 | 0.00 | 53 | 1006.6 |
| 20260505064512 | 58 | 360 | 14.8 | 20.9 | 0.00 | 0.01 | 0.00 | 52 | 1006.0 |
| 20260505063004 | 58 | 360 | 12.2 | 20.0 | 0.00 | 0.01 | 0.00 | 52 | 1005.8 |
| 20260505061503 | 58 | 360 | 13.9 | 22.6 | 0.00 | 0.01 | 0.00 | 52 | 1005.7 |
| 20260505054559 | 59 | 360 | 11.3 | 15.6 | 0.01 | 0.01 | 0.00 | 55 | 1005.4 |
| 20260505053054 | 59 | 360 | 6.1 | 9.6 | 0.01 | 0.01 | 0.00 | 62 | 1005.5 |
| 20260505051550 | 59 | 360 | 5.2 | 11.3 | 0.01 | 0.01 | 0.00 | 61 | 1005.9 |
| 20260505041546 | 67 | 360 | 12.2 | 20.9 | 0.00 | 0.00 | 0.00 | 42 | 1004.0 |
| 20260505040057 | 68 | 360 | 13.0 | 20.9 | 0.00 | 0.00 | 0.00 | 42 | 1003.6 |
| 20260505034544 | 68 | 360 | 11.3 | 18.2 | 0.00 | 0.00 | 0.00 | 43 | 1003.8 |
| 20260505033040 | 69 | 360 | 10.4 | 16.5 | 0.00 | 0.00 | 0.00 | 44 | 1003.4 |
| 20260505031549 | 71 | 360 | 12.2 | 20.0 | 0.00 | 0.00 | 0.00 | 43 | 1003.4 |
| 20260505030043 | 71 | 360 | 13.0 | 18.2 | 0.00 | 0.00 | 0.00 | 47 | 1002.7 |
| 20260505024538 | 69 | 348 | 9.6 | 13.0 | 0.00 | 0.00 | 0.00 | 62 | 1002.2 |
| 20260505023037 | 70 | 360 | 0.9 | 3.5 | 0.00 | 0.00 | 0.00 | 60 | 1001.5 |
| 20260505021538 | 72 | 130 | 2.6 | 4.3 | 0.00 | 0.00 | 0.00 | 57 | 1001.3 |
| 20260505020041 | 72 | 130 | 0.9 | 2.6 | 0.00 | 0.00 | 0.00 | 58 | 1001.2 |
| 20260505014541 | 73 | 129 | 2.6 | 3.5 | 0.00 | 0.00 | 0.00 | 56 | 1001.0 |
| 20260505013035 | 73 | 129 | 1.7 | 2.6 | 0.00 | 0.00 | 0.00 | 57 | 1000.9 |
| 20260505011538 | 74 | 130 | 1.7 | 2.6 | 0.00 | 0.00 | 0.00 | 55 | 1000.6 |
| 20260505010036 | 75 | 130 | 1.7 | 3.5 | 0.00 | 0.00 | 0.00 | 54 | 1000.6 |
| 20260505004533 | 76 | 130 | 1.7 | 2.6 | 0.00 | 0.00 | 0.00 | 52 | 1000.7 |
| 20260505003034 | 77 | 130 | 1.7 | 3.5 | 0.00 | 0.00 | 0.00 | 50 | 1000.4 |
| 20260505001532 | 78 | 132 | 2.6 | 6.1 | 0.00 | 0.00 | 0.00 | 48 | 1000.6 |
| 20260505000043 | 79 | 123 | 5.2 | 7.8 | 0.00 | 0.00 | 0.00 | 46 | 1000.6 |
| 20260504234529 | 79 | 132 | 1.7 | 7.0 | 0.00 | 0.00 | 0.00 | 46 | 1000.5 |
| 20260504233029 | 80 | 360 | 5.2 | 8.7 | 0.00 | 0.00 | 0.00 | 43 | 1000.7 |
| 20260504231528 | 81 | 360 | 3.5 | 5.2 | 0.00 | 0.00 | 0.00 | 40 | 1000.8 |
| 20260504230028 | 81 | 360 | 2.6 | 5.2 | 0.00 | 0.00 | 0.00 | 39 | 1000.6 |
| 20260504224527 | 81 | 360 | 2.6 | 7.0 | 0.00 | 0.00 | 0.00 | 41 | 1000.5 |
| 20260504223027 | 82 | 360 | 3.5 | 8.7 | 0.00 | 0.00 | 0.00 | 39 | 1000.5 |
| 20260504221528 | 81 | 360 | 3.5 | 7.0 | 0.00 | 0.00 | 0.00 | 40 | 1000.4 |
| 20260504220040 | 81 | 360 | 4.3 | 8.7 | 0.00 | 0.00 | 0.00 | 41 | 1000.5 |
| 20260504214524 | 81 | 360 | 3.5 | 7.8 | 0.00 | 0.00 | 0.00 | 41 | 1000.7 |
| 20260504213022 | 82 | 360 | 4.3 | 7.8 | 0.00 | 0.00 | 0.00 | 40 | 1000.6 |
| 20260504211520 | 83 | 360 | 2.6 | 7.0 | 0.00 | 0.00 | 0.00 | 40 | 1000.9 |
| 20260504210019 | 83 | 130 | 2.6 | 7.0 | 0.00 | 0.00 | 0.00 | 36 | 1001.1 |
| 20260504204528 | 82 | 360 | 1.7 | 4.3 | 0.00 | 0.00 | 0.00 | 36 | 1001.2 |
| 20260504203015 | 82 | 360 | 1.7 | 7.8 | 0.00 | 0.00 | 0.00 | 35 | 1001.4 |
| 20260504201514 | 83 | 360 | 1.7 | 4.3 | 0.00 | 0.00 | 0.00 | 33 | 1001.6 |
| 20260504200012 | 84 | 360 | 3.5 | 7.8 | 0.00 | 0.00 | 0.00 | 35 | 1001.7 |
| 20260504194508 | 84 | 127 | 1.7 | 3.5 | 0.00 | 0.00 | 0.00 | 36 | 1001.8 |
| 20260504193005 | 83 | 360 | 3.5 | 7.8 | 0.00 | 0.00 | 0.00 | 35 | 1001.8 |
| 20260504191502 | 82 | 360 | 2.6 | 7.0 | 0.00 | 0.00 | 0.00 | 33 | 1002.0 |
| 20260504190006 | 82 | 360 | 2.6 | 4.3 | 0.00 | 0.00 | 0.00 | 35 | 1002.1 |
| 20260504184600 | 81 | 360 | 0.0 | 3.5 | 0.00 | 0.00 | 0.00 | 42 | 1002.1 |
| 20260504183102 | 80 | 27 | 0.0 | 3.5 | 0.00 | 0.00 | 0.00 | 39 | 1002.1 |
| 20260504181557 | 80 | 360 | 0.9 | 7.0 | 0.00 | 0.00 | 0.00 | 37 | 1002.1 |
| 20260504180136 | 80 | 360 | 2.6 | 5.2 | 0.00 | 0.00 | 0.00 | 42 | 1002.2 |
| 20260504174552 | 79 | 32 | 1.7 | 5.2 | 0.00 | 0.00 | 0.00 | 45 | 1002.3 |
| 20260504173049 | 78 | 360 | 2.6 | 8.7 | 0.00 | 0.00 | 0.00 | 44 | 1002.3 |
| 20260504171550 | 77 | 360 | 1.7 | 5.2 | 0.00 | 0.00 | 0.00 | 51 | 1002.2 |
| 20260504120108 | 58 | 360 | 5.2 | 10.4 | 0.00 | 0.00 | 0.00 | 70 | 1002.1 |